Temperature
20 21 21 22 22 21 20 19 20 20 19 20 19 19 20 21 21 21 21 22 22 22 21 21 21 21 20 20 20 20 19 19 19 19 18 18 18 18 18 17 17 17 17 16
21 21 21 22 22 21 21 21 20 20 20 20 20 20 20 20 20 21 21 21 22 22 22 21 21 21 20 20 20 19 19 19 18 18 18 18 18 18 17 17 17 17 16 16
19 20 21 21 21 21 21 21 20 21 21 19 19 19 20 21 21 21 22 22 22 22 22 21 21 21 20 20 20 19 19 19 18 18 18 18 17 17 17 17 17 16 16 16
17 20 21 20 20 21 21 20 20 20 19 19 19 20 21 21 21 21 22 22 22 22 22 21 21 21 20 20 19 19 19 19 18 18 18 17 17 17 17 16 16 16 16 15
15 18 19 20 20 20 20 20 19 19 18 18 19 19 20 21 21 22 22 22 22 22 21 21 21 20 20 19 19 19 18 18 18 18 17 17 17 16 16 16 16 15 15 15
15 18 19 19 20 21 20 20 19 18 18 18 18 17 18 21 21 21 21 21 21 21 21 20 20 20 19 19 19 18 18 18 17 17 17 17 16 16 16 15 15 15 14 14
15 17 17 18 19 20 20 19 20 19 19 18 18 19 20 20 20 21 21 21 21 21 20 20 19 19 19 19 19 18 18 17 17 17 17 16 16 16 15 15 15 14 14 14
14 16 17 18 18 18 18 20 20 20 20 19 20 19 20 20 20 20 20 20 20 20 19 19 19 19 18 18 18 18 17 17 17 16 16 16 15 15 15 14 14 14 14 14
14 16 16 17 18 19 19 19 20 20 20 20 19 19 19 19 19 19 19 19 19 19 19 18 18 18 18 18 18 17 17 17 16 16 16 15 15 15 14 14 14 14 13 13
14 15 16 17 18 19 20 20 20 20 20 20 19 19 18 18 19 19 19 19 19 19 18 18 18 18 18 17 17 17 17 16 16 15 15 15 14 14 14 14 14 13 13 13
14 15 16 17 18 19 19 20 19 19 19 19 19 18 18 18 18 18 18 18 17 17 17 17 17 17 17 16 16 16 16 16 15 15 14 14 14 14 14 13 13 13 13 13
14 15 15 17 18 18 19 19 19 19 19 19 18 18 18 17 17 18 17 17 17 17 17 16 16 16 16 16 16 15 15 15 15 14 14 14 14 13 13 13 13 13 12 12
16 17 17 17 18 18 18 18 18 18 18 18 18 17 17 17 17 17 17 16 16 16 16 16 16 16 16 15 15 15 15 14 14 14 14 13 13 13 13 13 12 12 12 12
17 17 16 17 17 18 18 18 18 18 18 18 17 17 17 17 17 16 16 16 16 16 16 15 15 15 15 15 14 14 14 14 14 13 13 13 13 13 13 12 12 12 12 11
17 17 17 17 17 17 17 17 17 17 17 17 17 16 16 16 16 16 16 16 15 15 15 15 15 14 14 14 14 14 13 13 13 13 13 13 12 12 12 12 12 11 11 11
16 16 16 16 16 17 17 17 17 17 17 16 16 16 16 16 16 15 15 15 15 15 14 14 14 14 14 14 13 13 13 13 13 13 12 12 12 12 11 11 11 11 10 10
16 16 16 16 16 16 16 16 17 16 16 16 16 16 15 15 15 15 15 14 14 14 14 14 14 13 13 13 13 13 12 12 12 12 12 12 11 11 11 11 10 10 10 10
16 16 16 16 16 16 16 16 16 16 16 16 15 15 15 15 15 14 14 14 14 13 13 13 13 13 13 12 12 12 12 12 11 11 11 11 11 11 10 10 10 10 10 10
16 16 15 15 16 15 15 15 15 15 15 15 15 15 14 14 14 14 13 13 13 13 13 12 12 12 12 12 11 11 11 11 11 11 11 10 10 10 10 10 10 10 9 9
15 15 15 15 15 15 15 15 15 15 15 15 14 14 14 14 13 13 13 13 12 12 12 12 12 11 11 11 11 11 11 11 11 10 10 10 10 10 9 9 9 9 9 9
15 15 15 15 15 15 15 14 14 14 14 14 14 14 13 13 13 13 12 12 12 12 12 11 11 11 11 11 11 11 11 10 10 10 10 10 9 9 9 9 9 9 8 8
14 14 14 14 14 14 14 14 14 14 14 13 13 13 13 13 12 12 12 12 12 12 11 11 11 11 11 11 10 10 10 10 10 10 10 9 9 9 9 9 8 8 8 8
14 14 14 14 14 14 13 13 13 13 13 13 13 13 12 12 12 12 12 12 11 11 11 11 11 11 10 10 10 10 10 10 9 9 9 9 9 9 8 8 8 8 8 8
13 13 13 13 13 13 13 13 13 13 12 12 12 12 12 12 12 12 11 11 11 11 11 11 10 10 10 10 10 9 9 9 9 9 9 9 8 8 8 8 8 8 8 7
13 13 13 13 13 13 13 12 12 12 12 12 12 12 12 12 11 11 11 11 11 11 10 10 10 10 10 9 9 9 9 9 9 8 8 8 8 8 8 8 8 7 7 7
12 12 12 13 13 12 12 12 12 12 12 12 11 11 11 11 11 11 11 11 10 10 10 10 9 9 9 9 9 9 9 9 8 8 8 8 8 8 8 8 7 7 7 7
12 12 12 12 12 12 12 12 12 11 11 11 11 11 11 11 11 10 10 10 10 10 9 9 9 9 9 9 9 8 8 8 8 8 8 8 8 7 7 7 7 7 7 7
Wind_Speed
5 4 4 4 4 5 6 8 9 8 8 9 8 8 7 5 5 5 5 5 6 6 6 5 5 5 5 5 4 5 5 5 5 4 3 3 3 2 2 2 2 2 2 1
1 2 3 2 4 6 6 5 6 4 7 7 5 3 4 5 6 7 7 7 6 6 6 6 7 6 6 5 5 6 6 5 4 4 4 4 3 3 2 2 1 1 1 1
3 2 2 4 6 7 5 4 6 7 8 3 3 7 8 8 7 8 7 7 7 7 7 7 7 7 7 6 5 6 5 5 4 5 5 4 4 2 2 2 2 2 2 1
2 2 5 8 2 4 5 3 3 4 4 5 6 5 4 5 7 6 6 5 6 6 6 6 5 6 6 6 6 6 5 5 4 5 5 4 4 4 3 3 2 2 2 2
4 4 5 6 3 4 5 4 2 4 3 2 1 2 2 4 5 6 6 6 6 6 6 5 6 6 6 6 6 5 5 5 5 5 5 4 5 4 3 3 2 2 2 2
4 4 7 8 4 2 4 4 3 3 3 2 3 1 6 4 3 3 3 3 3 3 4 4 5 6 7 6 6 6 6 5 5 5 5 5 5 4 3 3 3 2 2 2
4 4 7 6 3 4 5 7 4 4 5 5 5 6 4 2 2 3 3 2 3 4 4 4 5 7 6 6 6 5 4 4 4 4 4 4 4 3 3 2 2 1 2 2
4 4 7 3 3 5 6 3 3 4 4 4 3 1 1 1 2 2 2 2 3 4 3 3 5 7 6 5 5 4 4 4 4 3 3 3 4 3 3 3 3 2 1 2
7 6 5 4 5 4 2 2 3 3 4 3 2 0 1 0 1 1 2 2 2 3 3 2 4 6 6 5 4 5 4 3 3 3 2 3 4 4 3 3 3 2 2 2
2 5 6 5 4 2 1 2 2 2 3 4 2 1 0 0 0 1 2 1 1 3 2 2 2 4 5 4 5 5 5 4 3 3 2 2 3 3 4 4 3 3 3 3
3 6 5 5 4 2 0 1 2 2 1 4 4 2 1 0 1 2 2 2 2 2 2 1 1 1 2 2 4 4 3 3 2 2 2 2 2 2 3 4 5 5 5 4
6 7 5 6 5 2 1 1 2 2 2 3 3 2 1 1 1 2 2 2 2 2 2 1 1 1 1 3 5 5 3 3 3 3 3 3 2 1 1 2 3 4 5 5
6 5 6 6 5 3 2 2 3 4 4 3 2 2 1 1 1 2 2 2 2 3 2 1 1 1 1 2 4 5 4 4 3 3 4 4 4 3 2 2 1 1 3 4
5 3 3 4 4 3 2 2 2 3 3 3 3 1 1 1 1 1 2 2 2 2 2 1 1 1 2 2 3 4 3 3 3 3 3 4 4 4 3 3 2 2 2 2
4 4 5 3 2 1 2 3 3 2 2 1 1 1 1 2 2 2 2 1 2 2 2 2 1 1 1 2 4 4 3 2 2 2 2 2 2 2 2 2 2 1 1 2
3 2 2 2 3 3 2 3 3 3 3 2 2 2 2 2 1 1 1 2 3 3 2 2 2 2 1 2 3 2 2 3 3 2 2 2 2 2 2 2 1 2 2 2
2 3 3 4 4 4 3 4 4 4 3 3 3 2 1 2 1 0 1 0 2 2 2 2 2 2 1 2 3 2 2 2 3 2 2 2 2 2 2 2 2 2 2 3
5 6 6 7 6 5 3 2 3 3 4 3 2 1 1 2 2 1 1 0 1 1 1 1 1 0 0 1 2 2 2 2 2 2 2 2 2 2 3 3 3 3 2 2
2 2 3 4 4 4 4 3 2 2 2 3 3 2 1 1 1 1 1 1 1 1 2 2 1 0 0 1 1 2 2 2 2 2 2 3 2 2 2 3 3 3 2 2
1 1 2 2 3 3 3 3 3 2 2 2 3 2 1 1 1 1 1 1 2 3 2 1 0 0 1 1 1 2 2 3 3 3 2 2 2 2 2 3 3 3 3 3
2 0 1 2 2 2 2 3 3 2 1 2 2 2 2 1 1 2 2 1 3 2 1 1 1 1 1 2 2 2 2 2 2 2 2 2 2 3 3 3 3 3 3 3
2 1 1 1 1 1 0 2 3 3 2 1 1 1 1 1 1 1 2 3 3 2 1 1 1 2 2 2 1 2 2 2 2 2 2 3 3 3 3 3 3 4 4 4
1 0 1 1 2 2 1 1 2 3 2 2 2 2 2 3 2 2 2 2 1 2 1 1 2 2 1 1 1 2 2 2 2 2 3 3 3 3 4 4 4 4 4 4
1 1 1 1 3 3 1 0 1 1 2 2 2 3 3 2 1 2 3 2 2 1 1 1 2 2 1 1 2 2 2 3 3 3 3 3 3 3 4 4 4 4 4 5
0 1 2 3 2 1 1 1 1 0 0 0 1 1 2 2 3 2 2 2 2 1 1 2 2 1 1 1 2 3 3 4 4 3 3 3 4 4 4 4 5 4 4 5
1 1 1 1 2 2 2 2 2 1 1 1 1 1 1 1 1 1 1 1 1 1 1 1 1 1 1 2 2 3 3 4 4 4 4 4 4 4 4 4 5 4 4 5
2 2 2 2 1 0 1 2 2 1 1 2 1 1 1 0 0 0 0 0 0 1 1 1 1 2 2 2 2 3 3 2 3 3 3 4 4 4 4 5 4 4 4 4
Wind_Direction
217 215 182 200 211 186 185 189 190 219 223 246 236 222 223 211 189 182 192 196 193 190 190 189 184 184 183 181 176 172 168 177 194 195 185 183 186 190 187 181 184 181 164 172
242 216 186 215 232 206 208 195 202 216 248 252 235 197 208 213 201 200 207 208 205 196 188 192 189 183 177 176 177 171 175 184 185 175 175 191 197 188 181 182 157 143 168 200
227 293 74 254 228 202 207 205 181 207 236 245 208 209 210 209 208 213 215 212 203 200 200 201 196 185 182 181 175 172 177 180 180 176 184 196 196 179 186 188 168 176 199 197
151 103 214 240 249 184 185 211 207 223 245 226 227 231 230 210 205 215 219 215 212 207 205 206 197 182 171 164 166 171 176 183 185 179 186 188 182 187 193 188 182 199 213 215
135 180 256 288 246 170 177 231 220 218 260 291 20 39 294 224 206 215 214 213 211 207 206 196 188 176 160 164 168 173 184 190 192 187 188 187 190 198 195 186 190 211 222 211
139 166 220 241 259 204 131 248 254 203 207 186 108 178 257 243 212 219 215 203 196 179 171 178 182 162 159 170 175 190 197 195 189 186 186 191 194 191 194 186 193 198 226 234
165 204 249 258 284 110 157 238 243 199 195 176 191 221 243 238 236 210 191 183 157 150 172 186 172 156 165 175 194 198 183 176 177 180 182 184 184 176 171 176 169 190 229 258
149 185 248 279 120 171 220 232 191 192 188 186 212 264 256 208 197 173 154 155 150 154 180 177 162 157 170 191 195 166 160 167 174 172 171 166 159 161 161 164 175 201 224 263
189 214 252 262 229 249 206 197 202 196 206 178 159 329 336 307 185 140 141 167 167 158 161 163 163 165 180 198 172 160 159 166 173 171 174 171 169 175 176 179 189 200 209 232
241 268 276 277 274 296 214 195 219 195 173 145 139 161 89 330 74 94 99 92 96 122 141 173 174 176 191 187 167 164 167 169 170 178 190 183 175 179 179 190 196 202 213 224
242 271 297 296 286 278 266 77 89 79 135 143 137 141 157 250 169 129 101 93 103 128 154 198 178 184 194 171 158 165 165 163 177 182 177 174 167 195 202 209 207 204 214 211
225 231 217 250 259 244 179 164 153 120 92 100 127 146 148 226 206 145 120 116 124 134 150 183 177 196 189 165 161 162 170 181 194 194 189 183 176 189 325 232 225 216 209 207
230 237 231 250 257 244 195 179 161 147 149 138 140 151 171 215 181 124 121 137 165 182 184 171 161 200 223 182 170 173 188 199 203 198 192 193 195 194 230 332 17 254 223 209
233 224 251 246 240 234 187 166 138 132 142 142 140 141 150 139 138 155 185 190 160 140 135 136 141 250 242 181 174 181 193 206 202 211 208 204 207 209 204 209 243 312 305 245
258 241 232 240 238 201 153 133 118 117 122 99 122 152 181 183 207 228 221 169 128 127 138 144 164 261 247 175 175 179 185 196 194 196 199 206 207 206 207 207 208 242 295 300
277 265 208 194 200 197 175 165 163 181 176 171 195 220 210 185 189 221 201 157 146 168 189 176 211 256 246 185 171 173 186 191 177 168 167 177 178 188 198 192 200 208 230 255
196 225 214 202 203 200 194 192 185 184 180 191 211 215 175 130 98 45 312 228 168 179 190 192 237 265 224 187 177 180 182 182 170 162 171 185 189 195 196 193 204 220 239 242
223 216 209 197 191 188 186 183 179 175 180 194 185 161 157 159 180 214 254 272 87 58 349 283 271 282 185 185 175 172 172 176 181 188 188 197 202 201 206 215 221 223 244 255
259 214 195 190 182 172 173 176 183 188 183 164 149 157 175 194 197 179 113 93 102 304 304 305 318 30 239 228 179 161 166 173 184 200 204 206 207 211 214 226 233 234 239 243
309 191 170 166 154 162 175 172 163 167 176 150 140 133 138 211 181 142 122 167 240 241 251 269 277 244 252 238 195 175 181 191 201 210 209 204 209 217 226 233 233 233 237 238
313 312 135 135 127 137 159 160 152 156 161 145 157 180 198 226 185 150 142 267 286 266 240 238 232 243 232 227 219 201 196 196 201 205 209 217 222 226 229 231 232 234 237 240
298 267 160 135 124 117 156 138 138 140 129 105 133 152 157 228 251 228 219 232 255 270 263 253 252 251 240 223 214 212 211 210 214 215 216 218 219 227 233 237 238 238 238 244
315 237 165 157 156 152 96 110 139 144 147 165 185 193 201 214 209 200 258 271 249 261 259 255 259 249 231 208 215 218 219 221 225 231 233 232 231 233 237 242 241 241 241 242
10 45 112 110 104 106 102 130 158 173 192 220 223 213 202 210 252 242 227 245 252 258 266 277 280 275 247 225 222 225 232 235 231 229 231 233 238 241 242 242 244 242 239 242
104 111 118 115 118 153 187 175 99 107 137 268 289 276 240 212 219 248 251 235 231 246 283 287 291 288 269 250 243 241 242 242 237 231 231 235 240 243 243 241 240 240 240 243
73 82 123 174 180 189 187 167 176 205 191 213 294 302 295 263 206 220 236 244 248 263 272 283 282 279 269 263 261 258 255 254 248 240 237 239 243 245 246 244 243 241 242 244
39 52 54 36 21 167 169 162 170 195 196 189 234 285 295 320 37 181 194 244 274 278 276 280 279 273 273 274 275 277 272 261 252 249 247 243 241 244 246 247 248 248 248 249
Height
1495 1492 1493 1494 1495 1497 1500 1504 1510 1505 1503 1493 1488 1487 1487 1487 1489 1490 1492 1494 1495 1497 1498 1500 1503 1504 1506 1508 1510 1512 1513 1515 1516 1518 1519 1521 1521 1522 1522 1523 1523 1523 1523 1522
1495 1490 1491 1493 1491 1492 1493 1495 1497 1496 1495 1484 1483 1485 1485 1486 1487 1488 1489 1491 1493 1494 1496 1498 1500 1501 1503 1505 1507 1509 1511 1512 1514 1515 1516 1517 1518 1519 1519 1519 1520 1520 1520 1520
1504 1495 1493 1500 1490 1489 1489 1488 1490 1493 1488 1482 1483 1482 1482 1483 1485 1486 1487 1488 1490 1491 1493 1495 1497 1499 1500 1502 1504 1506 1508 1509 1511 1512 1513 1514 1515 1516 1516 1516 1517 1517 1517 1517
1507 1502 1510 1494 1481 1481 1484 1484 1483 1483 1481 1480 1479 1479 1481 1481 1483 1484 1485 1487 1488 1489 1491 1493 1495 1496 1498 1500 1502 1503 1505 1506 1508 1508 1509 1511 1511 1512 1512 1513 1513 1514 1514 1514
1511 1510 1503 1488 1480 1481 1484 1485 1481 1481 1480 1480 1479 1479 1479 1480 1481 1482 1483 1484 1486 1487 1488 1490 1492 1493 1495 1497 1499 1501 1502 1503 1504 1506 1507 1507 1508 1509 1509 1510 1510 1510 1511 1511
1508 1508 1508 1489 1475 1474 1479 1486 1478 1478 1478 1479 1479 1484 1479 1477 1479 1480 1481 1482 1483 1485 1486 1487 1489 1491 1492 1494 1496 1498 1499 1500 1502 1503 1503 1504 1505 1505 1506 1507 1507 1507 1508 1509
1504 1503 1495 1479 1474 1474 1489 1486 1475 1475 1475 1477 1478 1478 1476 1475 1476 1478 1479 1480 1481 1482 1483 1484 1486 1488 1490 1491 1493 1495 1497 1498 1499 1499 1500 1501 1502 1502 1503 1504 1504 1504 1505 1505
1503 1503 1496 1475 1474 1478 1477 1471 1472 1472 1473 1474 1475 1474 1474 1474 1474 1475 1476 1478 1479 1480 1481 1482 1484 1485 1487 1489 1491 1493 1494 1495 1496 1496 1497 1498 1499 1500 1500 1501 1501 1501 1502 1502
1490 1488 1477 1474 1473 1471 1471 1470 1470 1471 1471 1473 1473 1473 1473 1473 1474 1474 1476 1477 1478 1478 1479 1480 1481 1483 1485 1486 1488 1489 1490 1491 1493 1494 1495 1495 1496 1497 1497 1498 1498 1498 1498 1498
1483 1478 1474 1472 1471 1470 1470 1469 1470 1470 1470 1471 1472 1473 1473 1473 1474 1474 1475 1476 1476 1477 1478 1479 1480 1481 1483 1484 1485 1486 1487 1488 1489 1491 1491 1492 1493 1494 1494 1495 1495 1495 1494 1494
1480 1475 1472 1470 1469 1469 1469 1469 1469 1470 1470 1471 1472 1472 1473 1473 1473 1474 1474 1475 1475 1476 1477 1478 1479 1480 1481 1483 1483 1484 1485 1486 1488 1488 1489 1489 1490 1491 1491 1492 1492 1491 1491 1490
1475 1471 1471 1468 1468 1468 1468 1468 1469 1469 1470 1470 1472 1473 1473 1473 1473 1473 1473 1474 1475 1476 1476 1477 1478 1478 1479 1481 1481 1482 1482 1483 1484 1485 1485 1486 1487 1487 1488 1489 1488 1488 1488 1488
1467 1467 1467 1466 1466 1467 1467 1467 1468 1469 1470 1470 1471 1472 1472 1472 1472 1472 1473 1473 1474 1474 1475 1475 1476 1477 1477 1478 1478 1479 1480 1480 1481 1481 1482 1483 1484 1484 1484 1484 1485 1485 1485 1484
1463 1464 1464 1463 1464 1465 1466 1467 1468 1468 1469 1470 1471 1471 1472 1471 1471 1471 1472 1472 1472 1473 1473 1474 1474 1475 1475 1476 1476 1476 1477 1478 1478 1479 1479 1479 1480 1481 1481 1480 1480 1481 1481 1481
1461 1461 1462 1462 1463 1464 1465 1466 1466 1467 1468 1469 1471 1471 1471 1471 1471 1471 1471 1471 1471 1471 1471 1471 1472 1473 1473 1473 1474 1474 1474 1475 1476 1476 1477 1477 1477 1478 1478 1478 1477 1478 1478 1478
1459 1459 1459 1460 1461 1462 1463 1464 1465 1465 1467 1468 1469 1470 1470 1470 1470 1471 1470 1470 1469 1470 1470 1470 1471 1471 1471 1471 1471 1472 1472 1473 1473 1473 1473 1474 1474 1475 1475 1474 1474 1474 1475 1474
1457 1457 1457 1458 1459 1460 1461 1462 1463 1464 1466 1467 1467 1468 1468 1468 1468 1469 1469 1469 1468 1468 1468 1468 1469 1469 1469 1469 1469 1469 1469 1469 1470 1470 1470 1471 1471 1471 1471 1471 1472 1472 1472 1472
1454 1454 1455 1455 1456 1458 1459 1461 1462 1463 1465 1465 1466 1467 1467 1467 1467 1467 1467 1467 1467 1467 1467 1467 1467 1467 1466 1466 1466 1466 1466 1466 1467 1467 1467 1468 1468 1468 1469 1469 1469 1469 1469 1469
1452 1452 1453 1454 1455 1456 1458 1459 1461 1462 1464 1465 1465 1465 1466 1466 1466 1466 1466 1466 1465 1465 1465 1465 1465 1464 1464 1464 1464 1464 1464 1464 1464 1465 1465 1466 1466 1466 1466 1466 1466 1466 1465 1465
1451 1451 1452 1452 1453 1455 1456 1458 1459 1461 1462 1463 1464 1464 1464 1465 1465 1465 1465 1465 1464 1464 1463 1463 1462 1462 1462 1462 1462 1462 1462 1462 1462 1462 1462 1463 1463 1463 1463 1463 1463 1462 1462 1462
1450 1450 1450 1451 1452 1454 1455 1457 1458 1459 1461 1462 1462 1462 1463 1464 1464 1464 1464 1464 1463 1463 1462 1461 1461 1460 1460 1460 1460 1460 1460 1459 1459 1459 1460 1460 1460 1459 1459 1459 1459 1459 1459 1459
1448 1449 1449 1450 1451 1452 1454 1455 1457 1458 1459 1460 1461 1461 1462 1462 1462 1462 1462 1462 1462 1461 1460 1460 1459 1459 1458 1458 1457 1457 1457 1457 1457 1456 1456 1456 1456 1456 1456 1456 1456 1455 1455 1455
1447 1447 1448 1449 1450 1451 1452 1454 1455 1457 1458 1459 1459 1460 1460 1460 1460 1460 1460 1460 1459 1459 1458 1457 1457 1456 1456 1455 1455 1455 1454 1454 1454 1453 1453 1453 1453 1453 1452 1452 1452 1452 1452 1451
1447 1447 1447 1448 1449 1450 1451 1452 1454 1455 1456 1457 1457 1458 1458 1458 1458 1458 1457 1457 1457 1456 1456 1455 1455 1454 1453 1453 1452 1452 1451 1451 1451 1451 1450 1450 1449 1449 1449 1449 1448 1448 1448 1447
1446 1447 1447 1447 1448 1449 1450 1452 1453 1454 1455 1455 1456 1456 1456 1456 1455 1455 1455 1455 1454 1454 1453 1453 1452 1452 1451 1450 1449 1449 1448 1448 1448 1447 1447 1446 1446 1445 1445 1444 1444 1444 1443 1443
1446 1446 1446 1447 1448 1449 1450 1450 1451 1452 1453 1453 1454 1454 1454 1454 1453 1453 1453 1452 1452 1451 1451 1450 1450 1449 1448 1447 1447 1446 1445 1445 1444 1443 1443 1442 1442 1442 1441 1440 1440 1440 1439 1439
1446 1446 1447 1447 1448 1448 1449 1449 1450 1450 1451 1451 1451 1451 1452 1451 1451 1451 1450 1450 1449 1449 1448 1448 1447 1447 1446 1445 1444 1443 1442 1441 1440 1440 1439 1438 1438 1437 1437 1436 1436 1436 1435 1435